User: anonymous   Login
Location: Newark
(48.1500°N, 80.0333°W)
Time: 15:32:35
(UTC+00:00)
Language:

ISS - Orbit

View from above orbital plane
View from above orbital plane
View from above satellite
View from above satellite

Ground track
Ground track

The orbit data is extracted from the following two-line orbital elements,

1 25544U 98067A   20093.54825725  .00016717  00000-0  10270-3 0  9032
2 25544  51.6442   2.7503 0004895  77.5235 282.6463 15.48977249 20285
Epoch (UTC): 02 April 2020 13:09:29
Eccentricity: 0.0004895
inclination: 51.6442°
perigee height: 416 km
apogee height: 423 km
right ascension of ascending node: 2.7503°
argument of perigee: 77.5235°
revolutions per day: 15.48977249
mean anomaly at epoch: 282.6463°
orbit number at epoch: 2028

The dashed part of the orbit path shows where the satellite is in the earth's shadow,  

DLR